sat.trackr.live / text

‹ back to catalog

REIMEI (INDEX)

NORAD 28810 · 2005-031B

PAYLOAD ACTIVE UNKNOWN

§ Identity

Operator
Country
JPN
Launch date
2005-08-23
Launch site
TYMSC
Launch vehicle
Mass (kg)
RCS (m²)
0.57

External: N2YO · Heavens-Above · Gunter

§ Orbital elements

Epoch: 2026-05-24T19:30:25.978752Z

Period
95.32 min
Inclination
98.0112°
Eccentricity
0.0019668
Mean motion
15.10641729 rev/d
Perigee alt
520.6 km
Apogee alt
547.8 km
Semi-major
6,912.4 km
B*
3.1186e-4
RAAN
267.7348°
Arg perigee
187.4111°
Mean anomaly
172.6830°
Rev number
12,746

§ Raw data

REIMEI (INDEX)1 28810U 05031B   26144.81280068  .00005109  00000+0  31186-3 0  99942 28810  98.0112 267.7348 0019668 187.4111 172.6830 15.10641729127465

JSON: /api/v1/satellites/28810 · /tle

For live sub-satellite position, see the globe view (requires WebGL).

§ Visibility from observer

Set your observer location to see the next 7 days of passes ≥ 10°. The values pass through the URL so the page stays shareable.

No JS? Fill the form by hand. The geolocation button needs JavaScript.

§ Radio — SatNOGS DB

ModeDescriptionDownlinkUplink
FM S-Band Transmitter 2.264 GHz

1 transmitter · refreshed weekly from db.satnogs.org